CW5039 Weather Reports


Display with metric or nautical units.
time (UTC)temp
F
wind
direction
speed
MPH
gust
MPH
rain 1hr
in
rain 24hr
in
rain mn
in
humidity
%
barometer
mb
20260831075904 54 238 16.0 21.0 0.00 0.22 0.20 93 1008.3
20260831075404 54 251 14.0 21.0 0.00 0.22 0.20 93 1008.2
20260831074904 54 254 16.0 22.0 0.00 0.22 0.20 93 1008.2
20260831072904 54 259 17.0 21.0 0.00 0.24 0.20 93 1008.0
20260831071904 54 261 14.0 20.0 0.00 0.24 0.20 93 1008.0
20260831064904 55 251 17.0 31.0 0.03 0.24 0.20 93 1008.0
20260831064404 55 245 16.0 33.0 0.03 0.24 0.20 93 1008.0
20260831063905 55 249 17.0 24.0 0.03 0.24 0.20 93 1007.8
20260831063405 55 255 12.0 20.0 0.03 0.24 0.20 93 1007.7
20260831062905 55 258 15.0 24.0 0.03 0.24 0.20 93 1007.6
20260831061905 56 245 17.0 24.0 0.05 0.24 0.20 93 1007.4
20260831060405 56 237 23.0 33.0 0.07 0.22 0.19 93 1007.3
20260831055905 56 244 20.0 32.0 0.06 0.20 0.17 93 1007.2
20260831055404 55 242 20.0 26.0 0.06 0.20 0.17 93 1007.1
20260831054904 56 244 17.0 25.0 0.06 0.20 0.17 93 1007.1
20260831053904 56 246 18.0 24.0 0.06 0.20 0.17 93 1007.1
20260831053404 56 248 22.0 26.0 0.06 0.20 0.17 93 1007.2
20260831052405 57 241 30.0 37.0 0.06 0.20 0.17 93 1007.3
20260831051904 57 243 25.0 35.0 0.05 0.19 0.16 93 1007.2
20260831050405 58 255 26.0 32.0 0.01 0.15 0.12 93 1006.5
20260831045904 58 260 26.0 35.0 0.01 0.15 0.12 93 1006.4
20260831045404 58 265 25.0 32.0 0.01 0.15 0.12 93 1006.6
20260831044904 58 265 26.0 31.0 0.01 0.15 0.12 93 1006.6
20260831044404 58 259 23.0 32.0 0.02 0.15 0.12 93 1006.6
20260831043904 58 262 19.0 31.0 0.05 0.15 0.12 93 1006.6
20260831043405 58 263 20.0 26.0 0.04 0.14 0.11 93 1006.7
20260831042405 58 259 24.0 33.0 0.05 0.14 0.11 93 1006.7
20260831035405 58 259 24.0 31.0 0.05 0.14 0.11 93 1006.6
20260831034905 58 253 24.0 35.0 0.05 0.14 0.11 93 1006.8
20260831034404 58 247 24.0 35.0 0.03 0.13 0.09 93 1006.8
20260831033904 58 250 23.0 35.0 0.01 0.10 0.07 93 1006.9
20260831033404 59 259 26.0 35.0 0.01 0.10 0.07 93 1006.6
20260831032904 59 260 28.0 38.0 0.01 0.10 0.07 93 1006.8
20260831032405 60 258 25.0 35.0 0.00 0.09 0.06 93 1006.7
20260831025904 60 263 24.0 29.0 0.00 0.09 0.06 93 1006.4
20260831024404 61 268 21.0 35.0 0.01 0.09 0.06 93 1006.6
20260831023405 61 266 28.0 38.0 0.01 0.09 0.06 93 1006.7
20260831021404 61 259 24.0 33.0 0.02 0.09 0.06 93 1006.9
20260831020904 61 261 27.0 35.0 0.02 0.09 0.06 93 1007.1
20260831015904 62 243 28.0 33.0 0.02 0.09 0.06 93 1007.0
20260831014904 62 230 26.0 31.0 0.02 0.09 0.06 93 1007.1
20260831012904 62 250 25.0 31.0 0.03 0.09 0.06 93 1007.1
20260831012405 63 255 24.0 32.0 0.03 0.09 0.06 93 1007.2
20260831011404 63 229 26.0 38.0 0.02 0.08 0.05 93 1007.2
20260831010404 67 260 25.0 37.0 0.02 0.08 0.05 93 1007.1
20260831005904 67 264 26.0 35.0 0.02 0.08 0.05 93 1007.3
20260831003405 70 263 25.0 32.0 0.01 0.06 0.02 93 1007.3
20260831002904 70 259 28.0 35.0 0.01 0.06 0.02 93 1007.4
20260831001905 70 264 25.0 31.0 0.01 0.06 0.02 93 1007.5
20260831001405 70 266 23.0 31.0 0.01 0.06 0.02 93 1007.5
20260830234904 71 262 21.0 32.0 0.00 0.05 0.02 93 1007.5
20260830232904 74 263 24.0 30.0 0.00 0.05 0.02 93 1007.8
20260830232404 74 264 26.0 33.0 0.00 0.05 0.02 93 1007.8
20260830225904 73 254 26.0 33.0 0.01 0.06 0.02 93 1007.9
20260830225404 73 269 27.0 35.0 0.01 0.06 0.02 93 1007.8
20260830224404 72 252 20.0 29.0 0.01 0.06 0.02 93 1007.9
20260830223904 72 259 19.0 28.0 0.01 0.06 0.02 93 1008.0
20260830223404 72 258 21.0 32.0 0.01 0.06 0.02 93 1008.0
20260830222905 73 254 21.0 29.0 0.01 0.06 0.02 93 1008.0
20260830222405 73 253 19.0 24.0 0.01 0.06 0.02 93 1007.8
20260830221904 74 256 25.0 35.0 0.01 0.06 0.02 93 1007.9
20260830221404 74 254 18.0 31.0 0.01 0.06 0.02 93 1007.9
20260830215905 74 271 23.0 31.0 0.00 0.06 0.01 93 1007.9
20260830215404 78 264 20.0 26.0 0.00 0.06 0.01 93 1007.9
20260830214404 81 255 21.0 32.0 0.00 0.06 0.01 93 1008.0
20260830213404 89 255 22.0 31.0 0.00 0.06 0.01 93 1008.3
20260830212904 93 255 21.0 28.0 0.00 0.06 0.01 93 1008.3
20260830212404 93 263 21.0 32.0 0.00 0.06 0.01 93 1008.2
20260830211904 93 260 20.0 28.0 0.00 0.06 0.01 93 1008.2
20260830203904 93 252 18.0 28.0 0.00 0.06 0.01 93 1008.0
20260830203404 93 250 19.0 26.0 0.00 0.06 0.01 93 1008.0
20260830202404 93 269 18.0 23.0 0.00 0.06 0.01 93 1008.1
20260830200904 93 269 17.0 24.0 0.00 0.06 0.01 93 1008.1
20260830194904 93 250 13.0 17.0 0.00 0.06 0.01 93 1008.0
20260830193905 93 257 15.0 21.0 0.00 0.06 0.01 93 1007.9
20260830192404 91 259 18.0 21.0 0.00 0.06 0.01 93 1007.9
20260830191904 91 263 19.0 25.0 0.00 0.06 0.01 93 1007.8
20260830190905 91 259 17.0 22.0 0.00 0.06 0.01 93 1007.7
20260830184905 90 263 16.0 21.0 0.00 0.06 0.01 93 1007.5
20260830183905 90 258 13.0 20.0 0.00 0.06 0.01 93 1007.4
20260830182905 90 261 13.0 17.0 0.00 0.06 0.01 93 1007.4
20260830181905 90 260 14.0 17.0 0.00 0.06 0.01 93 1007.4
20260830175405 90 256 13.0 20.0 0.00 0.06 0.01 93 1007.0
20260830174405 90 259 12.0 16.0 0.00 0.06 0.01 93 1007.0
20260830172405 91 248 12.0 16.0 0.01 0.06 0.01 93 1006.9
20260830171905 91 251 15.0 23.0 0.01 0.06 0.01 93 1007.0
20260830170905 91 238 17.0 22.0 0.01 0.06 0.01 93 1006.9
20260830164406 91 251 17.0 22.0 0.01 0.06 0.01 93 1006.4
20260830163905 91 253 18.0 24.0 0.01 0.06 0.01 93 1006.4
20260830162905 91 237 17.0 24.0 0.00 0.05 0.00 93 1006.4
20260830160905 92 261 19.0 24.0 0.00 0.05 0.00 93 1006.1
20260830155905 92 252 12.0 17.0 0.00 0.05 0.00 93 1005.9
20260830154405 91 265 12.0 18.0 0.00 0.05 0.00 93 1005.9
20260830153905 91 263 13.0 17.0 0.00 0.05 0.00 93 1006.0
20260830153405 91 257 16.0 21.0 0.00 0.05 0.00 93 1006.0
20260830152405 91 263 15.0 21.0 0.00 0.05 0.00 93 1006.0
20260830151405 91 261 15.0 25.0 0.00 0.05 0.00 93 1006.0
20260830150405 92 269 9.0 13.0 0.00 0.05 0.00 93 1006.3
20260830143905 91 255 17.0 26.0 0.00 0.05 0.00 93 1006.2
20260830143405 91 261 18.0 26.0 0.00 0.05 0.00 93 1006.1
20260830141405 91 250 19.0 26.0 0.00 0.05 0.00 93 1006.1
20260830140405 90 256 24.0 31.0 0.00 0.05 0.00 93 1006.2
20260830135405 90 250 18.0 23.0 0.00 0.05 0.00 93 1006.3
20260830134905 91 249 19.0 29.0 0.00 0.05 0.00 93 1006.3
20260830133904 90 250 20.0 28.0 0.00 0.05 0.00 93 1006.3
20260830133405 90 248 19.0 26.0 0.00 0.05 0.00 93 1006.2
20260830132405 90 258 18.0 25.0 0.00 0.05 0.00 93 1006.1
20260830131905 90 259 17.0 24.0 0.00 0.05 0.00 93 1006.1
20260830130405 90 261 18.0 24.0 0.00 0.05 0.00 93 1006.1
20260830125405 90 257 18.0 23.0 0.00 0.06 0.00 93 1006.3
20260830124905 91 255 17.0 24.0 0.00 0.06 0.00 93 1006.3
20260830123405 90 263 16.0 23.0 0.00 0.06 0.00 93 1006.3
20260830122405 90 263 16.0 20.0 0.00 0.06 0.00 93 1006.2
20260830121905 89 261 16.0 21.0 0.00 0.07 0.00 93 1006.3
20260830120912 91 257 13.0 17.0 0.00 0.08 0.00 93 1006.4
20260830120405 90 253 12.0 17.0 0.00 0.08 0.00 93 1006.3
20260830115405 90 248 15.0 21.0 0.01 0.09 0.09 93 1006.3
20260830114904 90 252 17.0 24.0 0.01 0.09 0.09 93 1006.3
20260830114405 89 260 17.0 21.0 0.02 0.10 0.09 93 1006.2
20260830113905 90 260 17.0 22.0 0.02 0.11 0.09 93 1006.1
20260830113404 90 265 17.0 20.0 0.02 0.12 0.09 93 1006.1
20260830111405 90 260 16.0 20.0 0.02 0.14 0.09 93 1006.3
20260830110905 89 256 16.0 23.0 0.02 0.15 0.09 93 1006.2
20260830110404 89 252 16.0 24.0 0.02 0.15 0.09 93 1006.1
20260830105905 90 256 18.0 30.0 0.02 0.16 0.09 93 1006.1
20260830104405 90 254 18.0 23.0 0.00 0.17 0.07 93 1006.2
20260830102405 90 260 20.0 26.0 0.00 0.20 0.07 93 1005.9
20260830101406 89 253 20.0 25.0 0.00 0.24 0.07 93 1005.8
20260830100905 90 253 22.0 29.0 0.00 0.27 0.07 93 1005.9
20260830100405 90 256 19.0 28.0 0.00 0.29 0.07 93 1005.9
20260830095905 89 254 21.0 28.0 0.00 0.31 0.07 93 1005.9
20260830095405 89 254 21.0 28.0 0.00 0.34 0.07 93 1005.9
20260830094404 89 253 21.0 26.0 0.00 0.37 0.07 93 1005.9
20260830093904 89 262 20.0 24.0 0.00 0.39 0.07 93 1005.9
20260830093405 89 253 18.0 23.0 0.00 0.41 0.07 93 1005.9
20260830092905 89 258 17.0 23.0 0.00 0.43 0.07 93 1005.8
20260830092405 89 257 20.0 26.0 0.00 0.45 0.07 93 1005.8
20260830085405 89 251 20.0 28.0 0.00 0.62 0.07 93 1005.8
20260830083904 89 255 20.0 26.0 0.02 0.72 0.07 93 1005.5
20260830083405 90 257 18.0 24.0 0.02 0.76 0.07 93 1005.4
20260830082405 89 260 19.0 29.0 0.02 0.82 0.07 93 1005.2
20260830081905 89 247 24.0 32.0 0.02 0.83 0.07 93 1005.3
20260830081405 89 249 17.0 22.0 0.02 0.84 0.07 93 1005.2
20260830080905 89 255 17.0 24.0 0.02 0.86 0.07 93 1005.1